Location: Tauranga
(37.6860°S, 176.1670°E)
Time: 12:21:13
(UTC+13:00)

Cosmos 2181 Rocket - Pass Details

Date: 24 January 2019
Orbit: 952 x 1015 km, 82.9° (Epoch: 19 February)

Event Time Altitude Azimuth Distance (km) Brightness Sun altitude
Rises 23:30:46 0° 184° (S) 3,674 8.0 -26.8°
Reaches altitude 10° 23:33:19 10° 181° (S) 2,727 7.1 -27.1°
Maximum altitude 23:39:31 65° 99° (E) 1,071 4.0 -27.7°
Enters shadow 23:39:46 64° 84° (E) 1,076 4.0 -27.7°
